SELEY ESGG-ZZZZ

Flight info

Callsign SELEY
Flight time N/A
Altitude
Route
Aircraft SR22

Departure

Time 2026-05-04 14:06
Airport Göteborg Landvetter Airport (ESGG)

Arrival

Time N/A
Airport ZZZZ
Time Latitude Longitude Altitude Speed Heading
2026-05-04 14:00 57.66535 12.28850 511 ft 0 kts 296°
2026-05-04 14:00 57.66543 12.28890 511 ft 14 kts 108°
2026-05-04 14:00 57.66623 12.28915 511 ft 18 kts 298°
2026-05-04 14:01 57.66735 12.28907 511 ft 22 kts 18°
2026-05-04 14:01 57.66894 12.29047 511 ft 28 kts 23°
2026-05-04 14:01 57.67282 12.29402 511 ft 33 kts 24°
2026-05-04 14:02 57.67431 12.29395 511 ft 17 kts 302°
2026-05-04 14:02 57.67437 12.29375 511 ft 0 kts 297°
2026-05-04 14:03 57.67439 12.29368 511 ft 3 kts 299°
2026-05-04 14:03 57.67457 12.29302 510 ft 8 kts 290°
2026-05-04 14:04 57.67460 12.29199 510 ft 16 kts 266°
2026-05-04 14:04 57.67444 12.29036 510 ft 0 kts 202°
2026-05-04 14:04 57.67443 12.29035 510 ft 0 kts 205°
2026-05-04 14:05 57.67443 12.29034 510 ft 0 kts 207°
2026-05-04 14:05 57.67289 12.28894 510 ft 63 kts 205°
2026-05-04 14:06 57.66748 12.28407 628 ft 99 kts 213°
2026-05-04 14:06 57.66131 12.27793 927 ft 108 kts 224°
2026-05-04 14:06 57.65455 12.27150 1320 ft 110 kts 220°
2026-05-04 14:06 57.65202 12.25858 1424 ft 123 kts 281°
2026-05-04 14:07 57.65753 12.24637 1484 ft 133 kts 323°
2026-05-04 14:07 57.66577 12.23829 1480 ft 136 kts 333°
2026-05-04 14:07 57.67533 12.24016 1470 ft 147 kts 27°
2026-05-04 14:07 57.68362 12.25214 1424 ft 148 kts 28°
2026-05-04 14:08 57.69247 12.26159 1361 ft 148 kts 21°
2026-05-04 14:08 57.70149 12.27065 1355 ft 150 kts 33°
2026-05-04 14:08 57.70588 12.28775 1292 ft 150 kts 84°
2026-05-04 14:08 57.70151 12.30179 1232 ft 124 kts 161°
2026-05-04 14:09 57.68862 12.30359 794 ft 79 kts 220°
2026-05-04 14:09 57.68380 12.29936 657 ft 76 kts 216°
2026-05-04 14:10 57.67433 12.29035 511 ft 72 kts 207°
2026-05-04 14:10 57.67046 12.28665 509 ft 70 kts 209°
2026-05-04 14:10 57.66510 12.28199 595 ft 96 kts 211°
2026-05-04 14:10 57.65906 12.27630 801 ft 103 kts 215°
2026-05-04 14:11 57.65233 12.27054 1025 ft 105 kts 213°
2026-05-04 14:11 57.64724 12.24980 1476 ft 103 kts 285°
2026-05-04 14:11 57.65091 12.23773 1485 ft 120 kts 321°
2026-05-04 14:12 57.65672 12.23689 1519 ft 136 kts
2026-05-04 14:12 57.66531 12.24606 1564 ft 144 kts 25°
2026-05-04 14:12 57.68178 12.26575 1416 ft 136 kts 25°
2026-05-04 14:13 57.68941 12.27553 1419 ft 128 kts 28°
2026-05-04 14:13 57.69579 12.28710 1302 ft 138 kts 65°
2026-05-04 14:13 57.69486 12.30353 1238 ft 128 kts 141°
2026-05-04 14:13 57.68747 12.30259 930 ft 116 kts 218°
2026-05-04 14:14 57.68027 12.29582 737 ft 115 kts 217°
2026-05-04 14:14 57.66681 12.28354 796 ft 82 kts 215°
2026-05-04 14:14 57.66114 12.28051 1010 ft 107 kts 204°
2026-05-04 14:15 57.66160 12.25719 1525 ft 121 kts 296°
2026-05-04 14:15 57.67889 12.25713 1482 ft 162 kts 21°
2026-05-04 14:16 57.69800 12.27791 1444 ft 160 kts 50°
2026-05-04 14:16 57.69959 12.29771 1498 ft 154 kts 106°
2026-05-04 14:17 57.68666 12.30157 972 ft 121 kts 214°
2026-05-04 14:17 57.67911 12.29460 697 ft 122 kts 215°
2026-05-04 14:17 57.66489 12.28175 510 ft 98 kts 213°
2026-05-04 14:18 57.65925 12.27635 501 ft 84 kts 213°
2026-05-04 14:18 57.64782 12.26200 835 ft 111 kts 254°
2026-05-04 14:19 57.66002 12.25149 1305 ft 150 kts 12°
2026-05-04 14:19 57.67043 12.25464 1360 ft 158 kts 349°
2026-05-04 14:19 57.68102 12.25022 1516 ft 153 kts 329°
2026-05-04 14:19 57.69114 12.24330 1592 ft 157 kts 334°
2026-05-04 14:20 57.70188 12.23698 1493 ft 167 kts 340°
2026-05-04 14:20 57.71329 12.23180 1466 ft 171 kts 343°
2026-05-04 14:20 57.72539 12.23180 1466 ft 177 kts
2026-05-04 14:21 57.74969 12.23312 1551 ft 177 kts 354°
2026-05-04 14:21 57.76214 12.23274 1504 ft 181 kts 352°
2026-05-04 14:21 57.77473 12.23220 1451 ft 183 kts 353°
2026-05-04 14:21 57.78756 12.23381 1572 ft 184 kts
2026-05-04 14:22 57.79859 12.24500 1700 ft 172 kts 33°
2026-05-04 14:22 57.80848 12.25537 1791 ft 161 kts 22°
2026-05-04 14:22 57.81790 12.26392 2144 ft 139 kts 20°
2026-05-04 14:22 57.82689 12.27175 2406 ft 144 kts 15°
2026-05-04 14:23 57.84672 12.27722 2838 ft 148 kts 349°
2026-05-04 14:23 57.85710 12.27556 2761 ft 149 kts 343°
2026-05-04 14:23 57.86716 12.27180 2583 ft 140 kts 339°
2026-05-04 14:24 57.87656 12.26848 2247 ft 142 kts 344°
2026-05-04 14:24 57.88611 12.26752 2061 ft 138 kts 353°
2026-05-04 14:24 57.89541 12.26789 1963 ft 128 kts 356°
2026-05-04 14:24 57.90477 12.26896 1962 ft 145 kts 351°
2026-05-04 14:25 57.91546 12.27064 2118 ft 154 kts 355°
2026-05-04 14:25 57.93880 12.27141 2047 ft 177 kts 352°
2026-05-04 14:25 57.95113 12.27079 1964 ft 182 kts 353°
2026-05-04 14:26 57.96402 12.27090 1918 ft 183 kts 355°
2026-05-04 14:26 57.97650 12.27127 2104 ft 175 kts 355°
2026-05-04 14:26 57.98902 12.27670 1926 ft 190 kts
2026-05-04 14:26 58.00193 12.28236 1615 ft 200 kts
2026-05-04 14:27 58.01462 12.28547 1846 ft 175 kts 358°
2026-05-04 14:27 58.02666 12.28374 1832 ft 173 kts 336°
2026-05-04 14:27 58.03740 12.27482 1992 ft 168 kts 323°
2026-05-04 14:27 58.04842 12.26567 1892 ft 182 kts 342°
2026-05-04 14:28 58.06099 12.26498 2095 ft 176 kts 355°
2026-05-04 14:28 58.07380 12.26542 1919 ft 186 kts 353°
2026-05-04 14:28 58.08637 12.26657 2000 ft 176 kts 356°
2026-05-04 14:28 58.09901 12.26802 1877 ft 184 kts 354°
2026-05-04 14:29 58.12494 12.27628 1709 ft 182 kts
2026-05-04 14:29 58.15065 12.28172 1240 ft 188 kts 359°
2026-05-04 14:30 58.16362 12.28658 1140 ft 189 kts 11°
2026-05-04 14:30 58.17587 12.29184 1199 ft 182 kts
2026-05-04 14:30 58.20037 12.30061 1197 ft 177 kts
2026-05-04 14:31 58.21170 12.30982 1175 ft 185 kts 31°
2026-05-04 14:31 58.23211 12.33976 1229 ft 187 kts 38°
2026-05-04 14:32 58.25163 12.37222 1263 ft 187 kts 30°
2026-05-04 14:32 58.26259 12.38095 1144 ft 164 kts 12°
2026-05-04 14:32 58.27210 12.38865 1249 ft 137 kts 19°
2026-05-04 14:32 58.28060 12.39201 1044 ft 125 kts 341°
2026-05-04 14:33 58.28709 12.38432 908 ft 107 kts 317°
2026-05-04 14:33 58.29326 12.37688 769 ft 101 kts 320°
2026-05-04 14:33 58.29911 12.36901 541 ft 105 kts 315°
2026-05-04 14:33 58.30527 12.36120 338 ft 103 kts 317°
2026-05-04 14:34 58.31070 12.35402 169 ft 82 kts 315°
2026-05-04 14:34 58.31459 12.34893 138 ft 54 kts 306°
2026-05-04 14:34 58.31691 12.34609 140 ft 12 kts 341°
2026-05-04 14:34 58.31725 12.34727 141 ft 6 kts 78°
2026-05-04 14:35 58.31726 12.34759 141 ft 0 kts 94°
2026-05-04 14:35 58.31718 12.34822 141 ft 13 kts 52°